User: anonymous   Login
Location: Allos
(44.2333°N, 6.6333°E)
Time: 04:44:42
(UTC+00:00)
Language:

Meteor 2-12 Rocket - Orbit

View from above orbital plane
View from above orbital plane
View from above satellite
View from above satellite

Ground track
Ground track

The orbit data is extracted from the following two-line orbital elements,

1 15517U 85013B   21058.80707243  .00000027  00000-0  10636-4 0  9992
2 15517  82.5324  85.1558 0014809   2.2585 357.8639 13.84895732822565
Epoch (UTC): 27 February 2021 19:22:11
Eccentricity: 0.0014809
inclination: 82.5324°
perigee height: 936 km
apogee height: 957 km
right ascension of ascending node: 85.1558°
argument of perigee: 2.2585°
revolutions per day: 13.84895732
mean anomaly at epoch: 357.8639°
orbit number at epoch: 82256

The dashed part of the orbit path shows where the satellite is in the earth's shadow,  

DLR